CW9451 Weather Reports


Display with metric or nautical units.
time (UTC)temp
F
wind
direction
speed
MPH
gust
MPH
rain 1hr
in
rain 24hr
in
rain mn
in
humidity
%
barometer
mb
20260831135905 73 0.0 0.0 0.00 0.00 0.00 90 1011.5
20260831134905 74 0.0 0.0 0.00 0.00 0.00 87 1011.7
20260831133904 75 0.0 0.0 0.00 0.00 0.00 93 1011.9
20260831132904 73 0.0 0.0 0.00 0.00 0.00 96 1012.2
20260831131909 71 0.0 0.0 0.00 0.00 0.00 95 1012.1
20260831124905 72 0.0 0.0 0.00 0.00 0.00 78 1011.0
20260831123905 72 0.0 0.0 0.00 0.00 0.00 75 1010.9
20260831122905 72 0.0 0.0 0.00 0.00 0.00 77 1011.4
20260831121904 72 0.0 0.0 0.00 0.00 0.00 80 1011.4
20260831120908 72 0.0 0.0 0.00 0.00 0.00 80 1011.3
20260831114908 75 0.0 0.0 0.00 0.00 0.00 76 1011.9
20260831112905 72 0.0 0.0 0.00 0.00 0.00 86 1012.0
20260831111905 72 0.0 0.0 0.00 0.00 0.00 86 1012.1
20260831110904 72 0.0 0.0 0.00 0.00 0.00 89 1012.2
20260831105904 70 0.0 0.0 0.00 0.00 0.00 93 1012.0
20260831104905 70 0.0 0.0 0.00 0.00 0.00 95 1011.9
20260831103905 71 0.0 0.0 0.00 0.00 0.00 85 1012.0
20260831102904 73 0.0 0.0 0.00 0.00 0.00 82 1012.2
20260831101904 73 0.0 0.0 0.00 0.00 0.00 83 1012.7
20260831100905 71 0.0 0.0 0.00 0.00 0.00 85 1012.4
20260831095904 71 0.0 0.0 0.00 0.00 0.00 84 1012.5
20260831094904 71 0.0 0.0 0.00 0.00 0.00 85 1012.5
20260831093903 72 0.0 0.0 0.00 0.00 0.00 83 1012.6
20260831092904 72 0.0 0.0 0.00 0.00 0.00 85 1012.9
20260831091905 70 0.0 0.0 0.00 0.00 0.00 87 1012.9
20260831090904 70 0.0 0.0 0.00 0.00 0.00 91 1013.2
20260831085909 69 0.0 0.0 0.00 0.00 0.00 97 1013.5
20260831081905 67 0.0 0.0 0.00 0.00 0.00 10 1013.7
20260831080904 67 0.0 0.0 0.00 0.00 0.00 10 1013.8
20260831075905 66 0.0 0.0 0.00 0.00 0.00 10 1013.7
20260831074905 66 0.0 0.0 0.00 0.00 0.00 10 1013.7
20260831073905 66 0.0 0.0 0.00 0.00 0.00 10 1013.7
20260831072904 65 0.0 0.0 0.00 0.00 0.00 10 1013.7
20260831071904 65 0.0 0.0 0.00 0.00 0.00 10 1013.6
20260831070903 65 0.0 0.0 0.00 0.00 0.00 10 1013.6
20260831065904 65 0.0 0.0 0.00 0.00 0.00 10 1013.4
20260831064905 66 0.0 0.0 0.00 0.00 0.00 10 1013.5
20260831063905 66 0.0 0.0 0.00 0.00 0.00 10 1013.3
20260831062904 66 0.0 0.0 0.00 0.00 0.00 10 1013.4
20260831061903 65 0.0 0.0 0.00 0.00 0.00 10 1013.6
20260831060904 65 0.0 0.0 0.00 0.00 0.00 10 1013.4
20260831055909 65 0.0 0.0 0.00 0.00 0.00 10 1013.4
20260831053908 64 0.0 0.0 0.00 0.00 0.00 10 1013.2
20260831045904 63 0.0 0.0 0.00 0.00 0.00 10 1013.0
20260831044904 63 0.0 0.0 0.00 0.00 0.00 10 1013.0
20260831043904 63 0.0 0.0 0.00 0.00 0.00 10 1012.9
20260831042905 64 0.0 0.0 0.00 0.00 0.00 10 1012.9
20260831041905 64 0.0 0.0 0.00 0.00 0.00 10 1012.9
20260831040904 64 0.0 0.0 0.00 0.00 0.00 10 1012.5
20260831035904 64 0.0 0.0 0.00 0.00 0.00 10 1012.6
20260831034905 64 0.0 0.0 0.00 0.00 0.00 10 1012.5
20260831033904 63 0.0 0.0 0.00 0.00 0.00 10 1012.5
20260831032904 63 0.0 0.0 0.00 0.00 0.00 10 1012.5
20260831031904 64 0.0 0.0 0.00 0.00 0.00 99 1012.8
20260831030904 64 0.0 0.0 0.00 0.00 0.00 99 1012.9
20260831025904 63 0.0 0.0 0.00 0.00 0.00 97 1012.6
20260831024904 64 0.0 0.0 0.00 0.00 0.00 97 1012.6
20260831023904 64 0.0 0.0 0.00 0.00 0.00 97 1012.7
20260831022904 64 0.0 0.0 0.00 0.00 0.00 96 1012.9
20260831021905 64 0.0 0.0 0.00 0.00 0.00 97 1012.9
20260831020905 64 0.0 0.0 0.00 0.00 0.00 97 1013.0
20260831015904 64 0.0 0.0 0.00 0.00 0.00 96 1013.2
20260831014904 64 0.0 0.0 0.00 0.00 0.00 96 1013.2
20260831013905 64 0.0 0.0 0.00 0.00 0.00 96 1013.0
20260831012904 64 0.0 0.0 0.00 0.00 0.00 95 1013.3
20260831011904 64 0.0 0.0 0.00 0.00 0.00 95 1013.4
20260831010905 64 0.0 0.0 0.00 0.00 0.00 95 1013.6
20260831005904 64 0.0 0.0 0.00 0.00 0.00 95 1013.5
20260831004904 64 0.0 0.0 0.00 0.00 0.00 96 1013.2
20260831003904 65 0.0 0.0 0.00 0.00 0.00 95 1013.5
20260831002905 64 0.0 0.0 0.00 0.00 0.00 95 1013.2
20260831001904 65 0.0 0.0 0.00 0.00 0.00 94 1013.4
20260831000909 65 0.0 0.0 0.00 0.00 0.00 94 1013.4
20260830234905 65 0.0 0.0 0.00 0.00 0.00 93 1013.5
20260830233904 65 0.0 0.0 0.00 0.00 0.00 95 1013.6
20260830232904 65 0.0 0.0 0.00 0.00 0.00 94 1013.7
20260830231904 65 0.0 0.0 0.00 0.00 0.00 94 1013.6
20260830230904 65 0.0 0.0 0.00 0.00 0.00 94 1013.8
20260830225905 65 0.0 0.0 0.00 0.00 0.00 93 1013.8
20260830224905 66 0.0 0.0 0.00 0.00 0.00 92 1013.9
20260830223904 66 0.0 0.0 0.00 0.00 0.00 93 1013.9
20260830222904 66 0.0 0.0 0.00 0.00 0.00 92 1013.9
20260830221908 66 0.0 0.0 0.00 0.00 0.00 91 1013.9
20260830215909 66 0.0 0.0 0.00 0.00 0.00 92 1014.0
20260830213904 66 0.0 0.0 0.00 0.00 0.00 90 1013.7
20260830212904 66 0.0 0.0 0.00 0.00 0.00 89 1013.5
20260830211904 66 0.0 0.0 0.00 0.00 0.00 91 1013.7
20260830210904 67 0.0 0.0 0.00 0.00 0.00 89 1013.7
20260830205905 67 0.0 0.0 0.00 0.00 0.00 90 1013.8
20260830204905 67 0.0 0.0 0.00 0.00 0.00 90 1013.7
20260830203904 67 0.0 0.0 0.00 0.00 0.00 88 1013.7
20260830202904 67 0.0 0.0 0.00 0.00 0.00 87 1013.6
20260830201905 67 0.0 0.0 0.00 0.00 0.00 88 1013.7
20260830200904 68 0.0 0.0 0.00 0.00 0.00 87 1013.6
20260830195904 68 0.0 0.0 0.00 0.00 0.00 86 1013.6
20260830194904 68 0.0 0.0 0.00 0.00 0.00 86 1013.6
20260830193904 68 0.0 0.0 0.00 0.00 0.00 85 1013.8
20260830192904 69 0.0 0.0 0.00 0.00 0.00 84 1013.7
20260830191905 69 0.0 0.0 0.00 0.00 0.00 84 1013.7
20260830190910 69 0.0 0.0 0.00 0.00 0.00 84 1013.7
20260830184906 69 0.0 0.0 0.00 0.00 0.00 84 1013.5
20260830183905 70 0.0 0.0 0.00 0.00 0.00 83 1013.5
20260830182905 70 0.0 0.0 0.00 0.00 0.00 83 1013.4
20260830181904 70 0.0 0.0 0.00 0.00 0.00 81 1013.2
20260830180909 70 0.0 0.0 0.00 0.00 0.00 82 1013.1
20260830174904 71 0.0 0.0 0.00 0.00 0.00 78 1012.9
20260830173905 71 0.0 0.0 0.00 0.00 0.00 76 1012.8
20260830172904 72 0.0 0.0 0.00 0.00 0.00 74 1012.6
20260830171904 72 0.0 0.0 0.00 0.00 0.00 74 1012.6
20260830170904 72 0.0 0.0 0.00 0.00 0.00 73 1012.6
20260830165904 73 0.0 0.0 0.00 0.00 0.00 71 1012.5
20260830164905 73 0.0 0.0 0.00 0.00 0.00 72 1012.7
20260830163904 73 0.0 0.0 0.00 0.00 0.00 71 1012.4
20260830162904 74 0.0 0.0 0.00 0.00 0.00 70 1012.5
20260830161904 74 0.0 0.0 0.00 0.00 0.00 70 1012.6
20260830160904 74 0.0 0.0 0.00 0.00 0.00 71 1012.6
20260830155905 74 0.0 0.0 0.00 0.00 0.00 70 1012.5
20260830154905 74 0.0 0.0 0.00 0.00 0.00 71 1012.4
20260830153905 75 0.0 0.0 0.00 0.00 0.00 71 1012.5
20260830152909 75 0.0 0.0 0.00 0.00 0.00 71 1012.7
20260830150904 75 0.0 0.0 0.00 0.00 0.00 71 1013.2
20260830145908 74 0.0 0.0 0.00 0.00 0.00 73 1012.9
20260830143909 74 0.0 0.0 0.00 0.00 0.00 71 1013.1
20260830141905 73 0.0 0.0 0.00 0.00 0.00 74 1012.7
20260830140904 73 0.0 0.0 0.00 0.00 0.00 75 1012.6